Location: Bri�as
(42.6011°N, 2.8319°W)
Time: 06:16:00
(UTC+00:00)

Daily predictions for brighter satellites

Satellite Brightness Start Highest point End
(mag) Time Altitude Azimuth Time Altitude Azimuth Time Altitude Azimuth
SL-08 RB Rocket 3.8 19:33:53 10° SSE 19:38:26 62° ENE 19:43:04 10° N
Meteor 1-27 Rocket 4.0 19:42:48 10° N 19:48:42 58° ENE 19:54:31 10° SSE
Cosmos 1818 4.3 19:45:22 10° NW 19:50:40 53° WSW 19:55:55 10° SSE
ARGOS 3.5 19:47:02 10° S 19:52:23 73° WSW 19:57:46 10° NNW
IRS-1A Rocket 4.4 19:47:15 10° SSE 19:52:57 83° ENE 19:58:48 10° NNW
NOSS 3-2 (A) 3.3 19:48:22 10° SSW 19:53:50 62° ESE 20:00:05 10° NE
Cosmos 1707 Rocket 3.6 19:50:26 10° N 19:54:42 56° E 19:58:56 10° SSE
CZ-2C R/B 2.6 19:50:52 10° NNE 19:56:02 63° E 20:01:15 10° S
USA 267 4.2 19:55:24 10° ENE 20:00:29 24° SE 20:05:34 10° S
SL-4 R/B 3.9 19:57:20 10° WNW 20:00:56 28° NNW 20:04:18 10° NE
Cosmos 2360 4.3 19:56:08 10° NNW 20:01:54 88° WSW 20:07:38 10° SSE
SL-16 R/B 3.6 19:57:50 10° N 20:02:17 23° NE 20:06:27 11° E
BREEZE-M DEB (TANK) 3.4 20:00:12 10° WNW 20:02:27 34° N 20:06:33 10° ENE
MONITOR-E 3.8 20:00:31 11° SSE 20:02:36 44° ENE 20:04:51 10° N
SL-27 R/B 4.4 20:04:28 11° E 20:04:28 11° E 20:05:12 10° ENE
BREEZE-M DEB (TANK) 3.4 19:58:49 10° WNW 20:04:23 37° SW 20:07:00 10° SSE
NOSS 3-2 (C) 3.6 19:59:19 10° S 20:04:37 45° ESE 20:10:32 10° NE
Cosmos 1470 Rocket 4.4 20:01:51 10° SSE 20:05:41 30° E 20:09:31 10° NNE
Sich 1 3.3 20:01:58 10° SSW 20:06:23 76° W 20:10:50 10° N
Cosmos 2082 Rocket 2.4 20:03:34 10° SSW 20:09:16 78° WNW 20:14:58 10° NNE
BREEZE-M DEB (TANK) 4.3 20:06:52 10° WNW 20:09:54 23° NNW 20:11:42 10° NE
MetOp-A 4.1 20:04:40 10° SSE 20:10:00 82° ENE 20:15:24 10° NNW
USA 186 2.9 20:09:23 10° SSW 20:11:23 28° W 20:13:25 10° NW
Cosmos 2369 4.3 20:09:23 10° NNW 20:15:02 59° WSW 20:20:37 10° S
H-2A R/B 3.8 20:14:01 10° SSW 20:18:28 31° W 20:22:53 10° NW
Meteor 1-4 Rocket 2.3 20:15:12 10° N 20:18:40 78° E 20:21:51 12° SSE
Cosmos 2322 Rocket 3.5 20:15:01 10° N 20:19:43 25° NE 20:23:14 15° E
Cosmos 2278 3.8 20:15:37 10° NNW 20:21:21 79° WSW 20:27:01 10° SSE
Cosmos 1862 Rocket 3.7 20:18:08 10° N 20:22:31 54° E 20:25:58 15° SSE
Meteor 1-25 Rocket 4.4 20:18:45 10° SSE 20:24:05 50° E 20:29:32 10° NNE
Cosmos 676 Rocket 4.2 20:19:28 10° SSW 20:24:48 81° WNW 20:30:11 10° NNE
Genesis I 4.1 20:22:42 10° NW 20:26:24 44° WSW 20:29:42 12° S
USA 32 4.3 20:21:56 10° SSE 20:26:56 49° E 20:31:58 10° NNE
USA 276 3.7 20:25:16 10° NW 20:28:05 28° NNE 20:30:11 15° ENE
X-37B 0.8 20:25:27 10° WNW 20:28:34 63° N 20:30:22 23° E
Cosmos 2360 Rocket 4.0 20:24:52 10° N 20:28:35 17° NE 20:31:48 11° E
Terra 4.1 20:29:13 10° ENE 20:29:33 10° ENE 20:29:53 10° NE
ATLAS 3B R/B 3.5 20:24:36 10° SSE 20:29:50 25° ESE 20:35:03 10° ENE
Cosmos 1238 Rocket 2.7 20:30:33 29° SE 20:31:19 35° E 20:34:06 10° NNE
Meteor 2-20 4.5 20:26:28 10° N 20:32:38 85° W 20:38:45 10° S
Cosmos 1934 Rocket 4.1 20:28:55 10° S 20:35:17 88° W 20:41:42 10° N
Cosmos 468 Rocket 4.4 20:31:34 10° N 20:36:43 49° ENE 20:39:43 23° SE
CZ-2C R/B 3.7 20:33:02 10° NNE 20:37:37 88° WNW 20:42:05 10° SSW
Cosmos 44 4.4 20:33:26 10° NNW 20:37:55 33° NE 20:40:36 20° E
Cosmos 1980 Rocket 2.5 20:32:28 10° NNW 20:38:04 64° WSW 20:43:06 13° S
Resurs 01 Rocket 1.6 20:34:56 19° SSE 20:38:05 71° ENE 20:42:30 10° N
Lacrosse 5 2.0 20:33:52 10° NW 20:38:54 63° NE 20:41:50 25° ESE
Cosmos 1602 4.1 20:37:46 24° SSE 20:39:42 43° E 20:43:28 10° NNE
GP-B 3.1 20:41:32 10° N 20:45:57 62° E 20:48:37 23° SSE
SPOT 3 Rocket 3.8 20:41:01 11° S 20:46:00 72° WSW 20:51:12 10° NNW
Cosmos 1933 Rocket 3.6 20:43:00 18° S 20:46:08 58° E 20:50:30 10° NNE
Cosmos 405 Rocket 2.5 20:50:04 20° S 20:52:29 79° E 20:56:16 10° NNE
Spot 2 Rocket 3.8 20:51:17 28° SE 20:53:35 49° ENE 20:58:28 10° N
USA 238 DEB 4.3 20:47:53 10° SW 20:54:24 59° NW 21:01:13 10° NNE
USA 238 4.2 20:47:59 10° SW 20:54:30 60° NW 21:01:19 10° NNE
Meteor 1-20 Rocket 4.3 20:49:10 10° S 20:55:00 87° W 21:00:53 10° N
CENTAUR R/B 2.5 20:51:43 10° SW 20:57:33 85° NW 21:04:30 10° NE
Cosmos 1869 Rocket 4.4 20:57:44 30° E 20:57:55 30° E 21:01:48 10° NNE
Cosmos 1515 4.1 20:55:34 10° N 20:59:13 41° ENE 20:59:36 40° E
Cosmos 1741 Rocket 3.9 20:55:39 10° SSW 21:00:52 78° ESE 21:06:11 10° NNE
Okean 1-7 3.4 20:56:58 10° N 21:01:05 43° ENE 21:01:51 38° ESE
OBJECT-B 3.0 21:02:54 10° SSW 21:05:32 24° W 21:08:17 10° NW
Cosmos 1437 Rocket 2.7 21:03:12 10° N 21:06:57 55° ENE 21:07:19 52° ESE
Cosmos 1763 Rocket 3.4 21:05:43 10° NNW 21:11:04 85° ENE 21:13:14 37° SSE
Cosmos 1703 Rocket 3.5 21:07:08 10° N 21:11:27 64° E 21:12:20 50° SE
Cosmos 2084 Rocket 4.1 21:07:48 10° SW 21:11:54 55° NW 21:16:08 10° NNE
H-2A R/B 3.4 21:08:13 10° NNE 21:12:23 83° WNW 21:14:44 25° SSW
Cosmos 2333 Rocket 4.1 21:09:24 10° N 21:13:03 17° NE 21:15:19 14° ENE
Cosmos 1570 Rocket 4.4 21:08:18 10° N 21:13:29 49° ENE 21:14:58 38° ESE
ATLAS 5 CENTAUR R/B 4.0 21:11:24 10° N 21:13:43 18° NE 21:14:58 17° ENE
Landsat 7 3.7 21:15:20 42° SSE 21:16:55 81° ENE 21:21:42 10° N
SPOT 5 3.4 21:17:39 34° ENE 21:17:55 34° ENE 21:21:55 10° N
USA 245 4.4 21:14:57 30° SSE 21:18:25 86° ENE 21:24:29 10° NNW
Cosmos 921 Rocket 4.2 21:16:03 10° NW 21:19:54 36° W 21:21:52 23° SSW
MetOp-B 4.4 21:22:14 29° S 21:24:57 66° WSW 21:30:18 10° NNW
Cosmos 2208 Rocket 4.3 21:19:53 10° N 21:24:59 50° ENE 21:25:57 44° E
Okean 1 3.9 21:26:51 10° NNW 21:30:49 53° W 21:31:49 41° SW
Meteor 1-11 Rocket 4.3 21:31:46 38° E 21:31:52 38° E 21:37:10 10° NNE
Lacrosse 4 Rocket 3.3 21:37:37 18° NE 21:37:37 18° NE 21:38:54 10° NE
Meteor 1-19 Rocket 4.3 21:29:44 10° NNW 21:35:09 68° W 21:37:22 36° SSW
SL-27 R/B 3.8 21:37:55 29° WSW 21:38:49 35° WNW 21:41:55 10° N
Cosmos 2100 Rocket 3.8 21:36:57 42° S 21:39:06 75° E 21:45:16 10° N
SL-4 R/B 4.0 21:38:26 10° NW 21:41:24 21° N 21:42:59 16° NE
Cosmos 2173 Rocket 3.8 21:41:11 46° SSE 21:43:05 76° E 21:49:12 10° N
Cosmos 2219 Rocket 3.7 21:38:40 10° N 21:43:12 24° NE 21:44:23 22° ENE
Meteor 2-4 Rocket 3.5 21:37:58 10° N 21:43:34 86° E 21:44:39 59° SSE
Cosmos 540 Rocket 3.3 21:38:34 10° NNW 21:43:47 84° ENE 21:44:28 67° SE
USA 267 3.1 21:37:27 10° NE 21:44:02 88° SE 21:50:35 10° SW
SL-16 R/B 2.5 21:41:14 10° NNW 21:46:49 61° WSW 21:48:20 45° SSW
Cosmos 1725 Rocket 4.1 21:55:18 52° ESE 21:55:43 53° E 22:01:50 10° NNE
Cosmos 1459 Rocket 3.9 21:53:46 44° S 21:55:57 88° W 22:02:22 10° N
ERS-1 Rocket 2.8 21:56:14 72° SSW 21:56:42 81° WSW 22:01:45 10° NNW
Cosmos 2322 4.4 21:51:34 10° NNW 21:56:53 40° ENE 21:57:25 39° ENE
Cosmos 1833 4.0 21:58:11 71° SE 21:58:29 73° ESE 22:04:09 10° NNE
Cosmos 1500 4.1 22:00:27 45° NW 22:00:27 45° NW 22:03:33 10° N
SL-08 R/B 4.5 21:59:40 57° ESE 21:59:56 57° E 22:05:54 10° NNE
Cosmos 1536 4.5 22:03:05 26° NNE 22:03:05 26° NNE 22:05:01 10° NNE
Cosmos 2346 Rocket 4.3 21:56:56 10° N 22:02:58 67° E 22:03:31 63° ESE
Meteor 1-13 Rocket 4.0 21:57:34 10° N 22:03:06 77° E 22:03:23 75° ESE
Cosmos 2016 Rocket 3.9 22:02:20 62° SSE 22:03:18 74° E 22:09:41 10° NNE
Cosmos 2322 Rocket 2.6 21:58:32 10° NNW 22:04:04 54° WSW 22:05:03 48° SW
X-37B 3.6 22:02:10 10° W 22:02:37 13° W 22:02:37 13° W
SPOT 1/Viking Rocket 4.3 22:04:10 39° SW 22:05:22 45° W 22:10:23 10° NNW
Cosmos 2221 Rocket 4.0 22:01:53 10° N 22:05:37 58° NNE 22:05:37 58° NNE
Terra 1.8 22:06:49 75° NNE 22:06:49 75° NNE 22:11:15 10° N
Okean 3 4.0 22:05:06 10° N 22:08:38 59° NNW 22:08:38 59° NNW
Cosmos 841 Rocket 3.8 22:04:29 10° NNW 22:09:37 56° WSW 22:10:01 54° SW
Cosmos 1666 4.4 22:12:27 29° N 22:12:27 29° N 22:14:22 10° N
Cosmos 967 Rocket 4.5 22:04:28 10° NW 22:10:48 69° WSW 22:11:40 61° SSW
Cosmos 2360 Rocket 2.0 22:07:38 10° NNW 22:13:20 84° WSW 22:13:33 81° SSW
Resurs 01 Rocket 4.4 22:13:49 10° WSW 22:15:03 11° W 22:16:17 10° WNW
CARTOSAT-1 4.5 22:17:38 43° W 22:17:38 43° W 22:21:23 10° NNW
Iridium 4 Rocket 3.8 22:18:30 49° NW 22:18:30 49° NW 22:21:47 10° N
Cosmos 1864 Rocket 4.3 22:17:15 75° SE 22:17:42 79° E 22:23:59 10° N
Cosmos 2237 4.2 22:12:04 10° NNW 22:17:45 71° WSW 22:17:58 70° SW
USA 234 3.5 22:16:21 47° E 22:18:06 63° NE 22:24:33 10° NW
Cosmos 44 4.3 22:14:32 10° NW 22:19:01 38° WSW 22:19:01 38° WSW
ATLAS 3B R/B 2.9 22:13:26 10° SW 22:19:58 64° NW 22:26:35 10° NNE
Lacrosse 5 3.5 22:17:30 10° WNW 22:21:01 23° WSW 22:21:01 23° WSW
MOS 1-B Rocket 4.4 22:18:48 10° NNE 22:23:10 45° ENE 22:23:10 45° ENE
Cosmos 2233 Rocket 4.0 22:34:08 66° ENE 22:34:08 66° ENE 22:40:07 10° NNE
Cosmos 2061 Rocket 4.2 22:35:41 55° WSW 22:36:42 63° W 22:42:51 10° N
COSMOS 2428 3.2 22:34:33 10° NNW 22:39:48 53° NE 22:39:48 53° NE
Cosmos 44 Rocket 4.2 22:38:56 10° NNW 22:42:56 47° NNE 22:42:56 47° NNE
Cosmos 2237 Rocket 3.7 22:39:43 10° N 22:44:18 25° NE 22:44:34 24° ENE
Cosmos 2333 Rocket 2.5 22:52:22 10° NNW 22:57:19 67° NNW 22:57:19 67° NNW
Cosmos 839 Rocket 4.4 22:57:41 69° SSW 22:58:48 90° S 23:07:50 10° NNE
Lacrosse 4 Rocket 3.7 23:13:52 21° NW 23:13:52 21° NW 23:17:02 10° N
Cosmos 968 Rocket 4.5 23:17:23 42° NW 23:17:23 42° NW 23:21:28 10° N
Cosmos 2227 Rocket 4.0 23:22:00 20° ENE 23:22:00 20° ENE 23:24:06 10° NE
Cosmos 2219 Rocket 3.0 23:21:57 10° NNW 23:26:05 45° WNW 23:26:05 45° WNW
